Milwaukee Timmerman, WI

3:31 AM CST on November 18, 2019 (GMT -0600)
Timmerman

Weather History for KMWC - October, 2019

Change the Weather History Date:

Tuesday, October 22, 2019

  Actual Average Record
Temperature  
Mean Temperature 46 °F -  
Max Temperature 50 °F 59 °F 82 °F (1953)
Min Temperature 42 °F 40 °F 17 °F (1998)
Degree Days  
Heating Degree Days 19    
Moisture  
Dew Point 36 °F    
Average Humidity 65    
Maximum Humidity 81    
Minimum Humidity 57    
Precipitation  
Precipitation 0.00 in - - ()
Sea Level Pressure  
Sea Level Pressure 29.49 in    
Wind  
Wind Speed 18 mph (SW)    
Max Wind Speed 28 mph    
Max Gust Speed 39 mph    
Visibility 10 miles    
Events Rain    
Averages and records for this station are not official NWS values.
T = Trace of Precipitation, MM = Missing Value Source: NWS Daily Summary

Daily Weather History Graph

Daily Weather History Graph

Search for Another Location

Airport or City:

Astronomy

Oct. 22, 2019 Rise Set
Actual Time 7:13 AM CDT 5:58 PM CDT
Civil Twilight 6:45 AM CDT 6:27 PM CDT
Nautical Twilight 6:11 AM CDT 7:00 PM CDT
Astronomical Twilight 5:38 AM CDT 7:33 PM CDT
Moon 12:10 AM CDT (10/22) 3:19 PM CDT (10/22)
Length of Visible Light 11h 42m
Length of Day
10h 44m
Last Quarter, 37% of the Moon is Illuminated
Oct 22
Last Quarter
Oct 27
New
Nov 4
First Quarter
Nov 12
Full
Nov 19
Last Quarter

Hourly Weather History & Observations

Time (CDT) Temp. Windchill Dew Point Humidity Pressure Visibility Wind Dir Wind Speed Gust Speed Precip Events Conditions
12:15 AM 50.0 °F - 35.6 °F 58% 29.43 in 10.0 mi South 17.3 mph 23.0 mph N/A   Mostly Cloudy
12:35 AM 50.0 °F - 35.6 °F 58% 29.42 in 10.0 mi South 12.7 mph 20.7 mph N/A   Mostly Cloudy
12:55 AM 50.0 °F - 35.6 °F 58% 29.42 in 10.0 mi SSW 16.1 mph 25.3 mph N/A   Mostly Cloudy
1:15 AM 50.0 °F - 35.6 °F 58% 29.41 in 10.0 mi SSW 17.3 mph 27.6 mph N/A   Overcast
1:35 AM 50.0 °F - 35.6 °F 58% 29.41 in 10.0 mi South 18.4 mph 25.3 mph N/A   Overcast
1:55 AM 50.0 °F - 35.6 °F 58% 29.40 in 10.0 mi South 20.7 mph 26.5 mph N/A   Overcast
2:15 AM 50.0 °F - 35.6 °F 58% 29.39 in 10.0 mi South 15.0 mph 24.2 mph N/A   Overcast
2:35 AM 50.0 °F - 35.6 °F 58% 29.38 in 10.0 mi South 19.6 mph 26.5 mph N/A   Overcast
2:55 AM 50.0 °F - 35.6 °F 58% 29.39 in 10.0 mi SSW 25.3 mph 36.8 mph N/A   Overcast
3:15 AM 48.2 °F - 35.6 °F 62% 29.39 in 10.0 mi SSW 25.3 mph 29.9 mph N/A   Overcast
3:35 AM 48.2 °F - 35.6 °F 62% 29.38 in 10.0 mi SSW 27.6 mph 34.5 mph N/A   Overcast
3:55 AM 46.4 °F 39.2 °F 35.6 °F 66% 29.37 in 10.0 mi SSW 18.4 mph 31.1 mph N/A   Overcast
4:15 AM 46.4 °F 39.5 °F 35.6 °F 66% 29.36 in 10.0 mi South 17.3 mph 25.3 mph N/A   Overcast
4:35 AM 46.4 °F 39.0 °F 35.6 °F 66% 29.36 in 10.0 mi South 19.6 mph 31.1 mph N/A   Overcast
4:55 AM 46.4 °F 40.4 °F 37.4 °F 71% 29.36 in 10.0 mi South 13.8 mph 29.9 mph N/A   Overcast
5:15 AM 46.4 °F 38.7 °F 37.4 °F 71% 29.36 in 10.0 mi SSW 20.7 mph 35.7 mph N/A   Overcast
5:35 AM 46.4 °F 39.5 °F 37.4 °F 71% 29.35 in 10.0 mi SSW 17.3 mph 27.6 mph N/A   Overcast
5:55 AM 46.4 °F 39.2 °F 37.4 °F 71% 29.35 in 10.0 mi SSW 18.4 mph 29.9 mph N/A   Overcast
6:15 AM 46.4 °F 38.7 °F 37.4 °F 71% 29.35 in 10.0 mi SSW 20.7 mph 39.1 mph N/A   Overcast
6:35 AM 46.4 °F 39.2 °F 37.4 °F 71% 29.36 in 7.0 mi SW 18.4 mph 28.8 mph N/A Rain Light Rain
6:55 AM 44.6 °F 36.9 °F 37.4 °F 76% 29.36 in 10.0 mi SSW 18.4 mph 25.3 mph N/A   Overcast
7:15 AM 44.6 °F 37.2 °F 37.4 °F 76% 29.36 in 10.0 mi SW 17.3 mph 26.5 mph N/A   Overcast
7:45 AM 46.4 °F 40.1 °F 37.4 °F 71% 29.37 in 10.0 mi SW 15.0 mph 27.6 mph N/A   Overcast
8:45 AM 46.4 °F 40.4 °F 37.4 °F 71% 29.40 in 10.0 mi SW 13.8 mph 26.5 mph N/A   Overcast
9:45 AM 46.4 °F 39.0 °F 37.4 °F 71% 29.42 in 10.0 mi WSW 19.6 mph 27.6 mph N/A   Overcast
10:45 AM 44.6 °F 37.4 °F 39.2 °F 81% 29.44 in 7.0 mi SW 16.1 mph 24.2 mph N/A   Overcast
11:45 AM 46.4 °F 39.8 °F 35.6 °F 66% 29.48 in 10.0 mi WSW 16.1 mph 27.6 mph N/A   Overcast
12:45 PM 46.4 °F 38.3 °F 35.6 °F 66% 29.49 in 10.0 mi WSW 23.0 mph 32.2 mph N/A   Overcast
1:45 PM 46.4 °F 39.2 °F 35.6 °F 66% 29.51 in 10.0 mi WSW 18.4 mph 26.5 mph N/A   Overcast
2:45 PM 44.6 °F 35.1 °F 35.6 °F 71% 29.54 in 10.0 mi WSW 27.6 mph 34.5 mph N/A   Overcast
3:45 PM 46.4 °F 39.8 °F 35.6 °F 66% 29.57 in 10.0 mi WSW 16.1 mph 24.2 mph N/A   Overcast
4:45 PM 46.4 °F 39.8 °F 33.8 °F 62% 29.60 in 10.0 mi WSW 16.1 mph 27.6 mph N/A   Overcast
5:45 PM 42.8 °F 35.8 °F 37.4 °F 81% 29.63 in 10.0 mi WSW 13.8 mph 18.4 mph N/A   Overcast
6:45 PM 44.6 °F 38.4 °F 37.4 °F 76% 29.65 in 10.0 mi SW 12.7 mph - N/A   Overcast
7:45 PM 44.6 °F 40.2 °F 37.4 °F 76% 29.66 in 10.0 mi WSW 8.1 mph - N/A   Overcast
8:45 PM 46.4 °F 40.7 °F 35.6 °F 66% 29.66 in 10.0 mi WSW 12.7 mph 21.9 mph N/A   Overcast
8:55 PM 44.6 °F 37.8 °F 35.6 °F 71% 29.66 in 10.0 mi WSW 15.0 mph 21.9 mph N/A Rain Light Rain
9:15 PM 46.4 °F 40.1 °F 33.8 °F 62% 29.67 in 10.0 mi WSW 15.0 mph 23.0 mph N/A   Overcast
9:35 PM 46.4 °F 39.2 °F 32.0 °F 57% 29.67 in 10.0 mi WSW 18.4 mph 24.2 mph N/A   Overcast
9:55 PM 46.4 °F 40.4 °F 32.0 °F 57% 29.68 in 10.0 mi WSW 13.8 mph 21.9 mph N/A   Overcast
10:15 PM 46.4 °F 39.5 °F 32.0 °F 57% 29.68 in 10.0 mi WSW 17.3 mph 20.7 mph N/A   Overcast
10:35 PM 46.4 °F 39.5 °F 32.0 °F 57% 29.68 in 10.0 mi WSW 17.3 mph 25.3 mph N/A   Overcast
10:55 PM 46.4 °F 40.7 °F 32.0 °F 57% 29.69 in 10.0 mi WSW 12.7 mph 19.6 mph N/A   Overcast
11:15 PM 44.6 °F 38.1 °F 30.2 °F 57% 29.69 in 10.0 mi WSW 13.8 mph 23.0 mph N/A   Mostly Cloudy
11:35 PM 44.6 °F 37.8 °F 30.2 °F 57% 29.69 in 10.0 mi WSW 15.0 mph 23.0 mph N/A   Mostly Cloudy